Location: Cantaing
(50.1487°N, 3.1675°E)
Time: 15:55:05
(UTC+00:00)

Cosmos 2082 Rocket - Pass Details

Date: 14 January 2026
Orbit: 831 x 853 km, 71.0° (Epoch: 18 February)

Event Time Altitude Azimuth Distance (km) Brightness Sun altitude
Exits shadow 05:08:53 17° 346° (NNW) 2,002 4.0 -23.7°
Maximum altitude 05:12:55 43° 51° (NE) 1,171 3.2 -23.0°
Drops below altitude 10° 05:18:18 10° 123° (ESE) 2,471 5.5 -22.2°
Sets 05:20:52 0° 130° (SE) 3,406 6.3 -21.8°
